Airfield :
LOGIN :

Register | Disclaimer

   EN    FR    IT 

 










Legend :    VFR   Marginal VFR   IFR   Intensive IFR   Very Intensive IFR
Visi :
Ceiling :
>= 8 km
>= 3000ft
5 to 8 km
1000 to 3000 ft
1500m to 5 km
500 to 1000 ft
800 to 1500m
200 to 500 ft
< 800m
< 200 ft
Symbols :   Thunderstorms  Fog  Heavy snow  Heavy precipitations  Wind > 20 kt
SIGMETs :     Misc.  Thunderstorms  Icing  Turbulence  Mountain Waves  Volcanic Ashes







- Airport Elevation : 44 ft
- IATA code : SOU
- Download approach charts


EGHI - Southampton

CURRENT METAR :
  • 210850Z 36009KT 330V030 CAVOK 15/05 Q1019

EXPIRED METARs :
  • 210820Z 35007KT 320V030 CAVOK 14/05 Q1019
  • 210750Z 36007KT 320V040 9999 FEW042 13/06 Q1019
  • 210720Z 36009KT 330V030 9999 FEW042 12/06 Q1018
  • 210650Z 36005KT 320V040 9999 FEW042 12/06 Q1018
  • 210620Z 35004KT 310V020 9999 FEW020 11/07 Q1018

TAF TAF EGHI
Valid from the 21 at 09:00 until the 21 at 18:00 UTC


210757Z 2109/2118 33005KT 9999 FEW025
ATIS : +44 23 8062 7103
No reported NOTAMs for that airfield.



MET'MAP, your aeronautical weather chart ! - Copyright ORBIFLY December 2007 - Disclaimer

ORBIFLY MET'MAP TEAM :

Programming & Development : Alexandra Zaïnal
Concept & Development : Baudouin d'Aumeries
Co-Development & Prog : Marc-Olivier Méhu
Technical & hardware support : Manuel Goepfert

Contact : metmap@orbifly.com




SOURCES & CREDITS :

   NOAA